Weather History for PALH - October, 2013

Change the Weather History Date:

Wednesday, October 16, 2013

  Actual Average Record
Temperature  
Mean Temperature 52 °F -  
Max Temperature 57 °F 38 °F 57 °F (2013)
Min Temperature 46 °F 27 °F 14 °F (1996)
Degree Days  
Heating Degree Days 14    
Growing Degree Days 2 (Base 50)    
Moisture  
Dew Point 39 °F    
Average Humidity 59    
Maximum Humidity 86    
Minimum Humidity 44    
Precipitation  
Precipitation 0.00 in - - ()
Sea Level Pressure  
Sea Level Pressure 30.18 in    
Wind  
Wind Speed 11 mph (SSE)    
Max Wind Speed 17 mph    
Max Gust Speed 25 mph    
Visibility 10 miles    
Events      
Averages and records for this station are not official NWS values.
T = Trace of Precipitation, MM = Missing Value Source: NWS Daily Summary

Daily Weather History Graph

Daily Weather History Graph

Search for Another Location

Airport or City:

Trip Planner

Search our weather history database for the weather conditions in past years. The results will help you decide how hot, cold, wet, or windy it might be!

Date:

Astronomy

Oct. 16, 2013 Rise Set
Actual Time 8:45 AM AKDT 6:43 PM AKDT
Civil Twilight 8:01 AM AKDT 7:27 PM AKDT
Nautical Twilight 7:11 AM AKDT 8:17 PM AKDT
Astronomical Twilight 6:21 AM AKDT 9:07 PM AKDT
Moon 5:52 PM AKDT (10/16) 5:53 AM AKDT (10/16)
Length of Visible Light 11h 25m
Length of Day
9h 57m
Waxing Gibbous, 95% of the Moon is Illuminated
Oct 16
Waxing Gibbous
Oct 18
Full
Oct 26
Last Quarter
Nov 3
New
Nov 9
First Quarter

Hourly Weather History & Observations

Time (AKDT) Temp. Windchill Dew Point Humidity Pressure Visibility Wind Dir Wind Speed Gust Speed Precip Events Conditions
12:53 AM 55.9 °F - 37.9 °F 51% 30.12 in 10.0 mi South 12.7 mph 23.0 mph N/A   Overcast
1:53 AM 57.0 °F - 37.9 °F 49% 30.13 in 10.0 mi South 17.3 mph 25.3 mph N/A   Mostly Cloudy
2:53 AM 55.0 °F - 39.0 °F 55% 30.16 in 10.0 mi South 13.8 mph 20.7 mph N/A   Mostly Cloudy
3:53 AM 55.9 °F - 37.9 °F 51% 30.17 in 10.0 mi South 11.5 mph 18.4 mph N/A   Overcast
4:53 AM 57.0 °F - 37.9 °F 49% 30.18 in 10.0 mi SSE 8.1 mph 19.6 mph N/A   Overcast
5:53 AM 55.9 °F - 37.9 °F 51% 30.18 in 10.0 mi South 6.9 mph - N/A   Overcast
6:53 AM 55.0 °F - 37.9 °F 53% 30.18 in 10.0 mi South 8.1 mph - N/A   Scattered Clouds
7:53 AM 55.0 °F - 37.9 °F 53% 30.19 in 10.0 mi SSE 10.4 mph - N/A   Overcast
8:53 AM 55.9 °F - 37.9 °F 51% 30.21 in 10.0 mi SSE 10.4 mph 16.1 mph N/A   Overcast
9:53 AM 55.9 °F - 37.0 °F 49% 30.20 in 10.0 mi SSE 11.5 mph 16.1 mph N/A   Mostly Cloudy
10:53 AM 55.9 °F - 37.0 °F 49% 30.22 in 10.0 mi South 11.5 mph 18.4 mph N/A   Overcast
11:53 AM 55.9 °F - 36.0 °F 47% 30.25 in 10.0 mi South 11.5 mph 18.4 mph N/A   Overcast
12:53 PM 55.9 °F - 37.0 °F 49% 30.24 in 10.0 mi SSE 9.2 mph 24.2 mph N/A   Overcast
1:53 PM 57.9 °F - 36.0 °F 44% 30.21 in 10.0 mi SSE 13.8 mph 20.7 mph 0.00 in   Mostly Cloudy
2:53 PM 57.0 °F - 36.0 °F 45% 30.21 in 10.0 mi SSE 8.1 mph 19.6 mph N/A   Overcast
3:53 PM 57.0 °F - 36.0 °F 45% 30.19 in 10.0 mi SE 12.7 mph 24.2 mph N/A   Overcast
4:53 PM 55.9 °F - 37.9 °F 51% 30.19 in 10.0 mi North 4.6 mph - N/A   Overcast
5:53 PM 50.0 °F - 43.0 °F 77% 30.17 in 10.0 mi WNW 5.8 mph - N/A   Mostly Cloudy
6:53 PM 48.9 °F - 43.0 °F 80% 30.17 in 10.0 mi WNW 9.2 mph - N/A   Partly Cloudy
7:53 PM 48.0 °F - 42.1 °F 80% 30.17 in 10.0 mi North 4.6 mph - N/A   Partly Cloudy
8:53 PM 48.0 °F - 42.1 °F 80% 30.17 in 10.0 mi NNW 8.1 mph - N/A   Clear
9:53 PM 46.9 °F - 42.1 °F 83% 30.16 in 10.0 mi North 4.6 mph - N/A   Mostly Cloudy
10:53 PM 46.0 °F 41.0 °F 42.1 °F 86% 30.16 in 10.0 mi North 10.4 mph - N/A   Clear
11:53 PM 46.0 °F 43.9 °F 42.1 °F 86% 30.16 in 10.0 mi NE 4.6 mph - N/A   Clear